Temp
19 20 23 25 26 28 29 31 32 31 30 31 32 31 31 29 29 27 25 26 25 24 21 20 19 19 19 19 19 19 19 19 19 19 19 19 19 19 19 19 19 19 19 18 18 19 19 19 19
19 22 24 26 26 28 29 32 30 31 30 30 29 29 30 28 27 25 25 25 25 24 22 21 20 19 19 19 19 19 19 19 19 19 19 19 19 19 18 18 19 19 19 18 18 18 18 18 18
17 21 26 26 27 28 30 32 32 30 29 29 29 28 29 26 27 26 25 24 24 24 22 21 19 19 19 19 19 19 19 19 19 19 19 18 18 19 18 19 19 19 19 19 19 18 18 18 18
19 19 25 26 27 29 31 31 31 29 28 29 29 28 25 25 26 25 24 23 23 22 21 20 19 19 19 19 19 19 19 19 19 19 19 19 19 19 18 18 18 18 18 18 18 18 18 19 18
21 23 21 25 28 30 31 30 30 29 29 28 28 27 25 24 23 24 24 23 22 22 21 19 19 19 19 19 19 18 18 19 19 18 19 19 19 19 18 18 18 18 18 18 18 18 18 18 18
22 24 22 25 27 30 31 30 30 30 29 28 28 27 25 22 21 23 24 22 22 22 20 19 19 19 19 19 19 19 19 19 19 19 19 19 19 19 19 19 18 18 18 18 18 18 18 18 18
22 24 25 25 27 28 29 29 29 30 28 28 29 28 25 22 20 22 22 21 20 20 20 20 18 19 19 19 19 19 19 19 19 19 19 19 19 18 18 18 18 18 18 18 18 18 18 18 18
22 24 26 26 27 27 29 29 30 29 29 27 28 28 25 22 18 19 20 20 20 20 20 20 19 20 20 18 19 19 19 19 19 19 19 18 18 18 17 17 17 17 17 17 17 17 17 18 18
21 23 25 27 27 28 28 28 27 25 26 27 26 27 25 18 17 18 19 20 19 19 19 19 19 19 19 19 19 18 18 18 18 17 18 18 18 18 17 16 16 16 16 16 16 16 17 17 18
21 23 25 29 29 29 27 28 26 27 26 26 25 24 20 17 16 17 18 19 20 19 19 19 18 18 19 18 18 18 18 18 18 18 17 18 17 17 16 16 16 16 16 16 16 16 16 17 17
22 24 28 28 29 30 27 28 28 28 26 28 26 24 22 18 17 18 21 20 21 20 19 18 18 18 18 18 19 19 17 17 18 17 17 17 17 17 17 17 17 16 16 16 16 17 17 17 17
22 22 25 24 23 27 27 28 26 28 26 27 27 25 22 20 19 21 21 21 20 19 19 18 18 17 17 18 18 18 18 17 17 16 16 16 16 16 16 16 16 16 16 16 16 16 16 17 17
22 22 22 23 23 26 27 26 27 27 25 24 25 24 23 22 22 22 22 21 20 19 18 17 17 17 16 17 17 17 17 16 16 15 15 15 15 15 15 15 15 15 15 15 15 15 16 16 16
24 22 22 22 23 24 25 26 26 25 24 24 24 24 23 23 23 23 22 21 20 19 18 17 16 16 17 16 16 17 16 16 15 15 14 15 14 14 14 14 14 14 14 14 14 15 15 15 16
22 21 22 22 23 23 26 24 25 25 24 23 24 23 23 23 23 22 21 21 21 20 19 17 16 16 16 16 15 16 15 16 15 15 14 14 14 13 13 14 14 14 13 13 14 14 14 15 16
22 23 22 22 22 22 22 24 24 25 24 24 24 23 22 23 22 22 22 21 20 20 19 17 16 16 16 15 15 15 15 16 15 14 14 13 13 13 13 14 14 13 13 13 13 13 13 14 15
23 22 23 21 22 23 23 26 24 24 25 25 24 23 23 23 22 22 21 21 20 19 19 17 16 16 16 15 15 15 14 15 15 15 14 13 13 13 13 13 13 13 12 13 13 12 12 14 15
22 24 24 23 22 23 24 24 23 23 25 26 25 25 24 23 23 22 21 21 20 20 19 19 17 17 16 15 15 15 15 14 14 15 15 14 13 13 12 13 13 12 12 13 12 11 11 12 12
24 25 24 22 20 24 25 24 23 23 23 25 26 26 25 24 24 21 20 20 20 20 19 19 18 17 16 16 16 16 16 15 14 14 13 13 13 13 12 13 13 12 12 12 12 11 11 11 11
22 24 23 20 20 22 23 24 24 23 24 24 25 26 25 25 23 21 19 19 19 19 18 18 18 17 16 16 15 15 15 15 14 14 13 13 12 12 12 12 12 12 12 12 12 11 10 10 11
22 24 22 23 21 21 23 24 23 22 22 22 22 23 22 22 22 20 19 19 18 18 17 17 17 16 16 15 14 14 13 14 14 14 14 14 13 12 12 12 12 12 12 12 12 11 10 10 10
22 19 21 21 23 23 22 24 25 23 22 22 22 22 22 21 20 19 18 18 17 17 16 16 16 15 15 14 14 15 15 16 16 15 14 13 13 12 12 11 11 11 11 11 11 12 10 10 10
18 18 21 23 23 22 23 22 24 22 22 22 23 22 21 20 20 19 17 16 15 14 14 15 15 15 15 14 14 14 14 15 15 14 14 14 13 13 12 11 11 11 11 11 11 11 11 10 9
17 19 21 23 24 20 20 20 23 22 24 23 22 21 20 20 19 19 17 16 15 14 14 14 15 15 15 14 14 13 13 14 14 14 14 14 14 14 13 12 11 11 11 11 11 11 10 10 10
19 21 20 20 18 22 18 19 23 22 21 23 22 21 20 19 19 19 19 17 16 16 15 15 15 15 15 14 14 14 13 13 13 14 14 14 14 14 14 13 12 11 11 11 10 10 11 11 10
18 18 20 21 22 22 17 20 22 21 20 19 19 19 19 19 18 18 18 17 16 16 15 15 15 15 14 14 14 13 13 13 13 13 13 13 13 13 13 12 11 11 11 11 10 10 10 11 11
18 19 17 17 17 20 22 21 21 18 18 18 19 18 19 19 18 18 17 17 16 16 15 15 14 14 14 14 13 14 14 13 13 13 13 13 13 12 12 11 11 11 11 11 10 10 11 11 11
16 16 19 19 20 21 23 22 18 13 19 19 19 19 19 19 18 18 17 16 15 15 14 14 14 14 14 13 13 13 13 13 13 13 13 13 12 12 12 11 11 11 11 11 11 10 10 10 10
18 18 18 19 20 22 23 23 20 18 20 20 20 20 19 18 18 18 17 16 15 14 14 14 13 13 13 13 12 13 12 12 12 12 12 12 12 11 11 11 11 11 11 11 11 11 10 10 10
16 18 19 20 20 19 19 19 20 19 19 20 20 20 20 19 19 18 17 16 15 15 14 14 13 13 12 12 12 12 11 11 11 11 11 11 11 11 11 11 10 10 11 11 11 10 10 10 10
Height
792 793 793 791 801 786 785 773 764 774 775 765 758 766 769 775 781 800 794 795 800 804 809 812 813 815 816 817 818 819 819 819 819 819 819 819 819 819 819 818 817 816 815 815 815 814 814 813 812
794 795 793 787 799 794 783 760 777 767 767 767 771 773 774 788 784 792 796 798 802 805 810 813 814 816 818 819 820 820 821 821 820 821 820 820 820 819 819 818 817 817 816 815 815 814 814 813 812
794 795 788 787 789 784 776 757 763 769 770 771 776 775 778 791 788 794 796 801 804 807 810 813 815 817 819 820 821 821 822 822 821 821 821 820 820 819 818 817 817 816 816 815 814 813 813 812 811
794 798 783 783 779 769 759 761 761 772 775 771 772 783 789 792 792 796 800 804 807 810 813 814 817 819 820 821 822 822 823 822 822 821 821 821 820 819 818 817 816 815 814 814 813 812 811 811 810
791 788 798 783 772 759 752 760 762 770 770 775 775 786 792 797 799 800 803 807 810 812 815 817 818 819 821 822 822 823 823 823 822 822 821 821 820 819 818 816 815 814 813 812 811 810 809 809 808
787 777 795 782 772 756 754 762 763 763 769 773 779 784 793 800 802 803 805 809 812 813 816 818 819 820 821 822 823 823 823 823 822 822 821 820 819 818 817 816 815 814 812 811 810 809 808 807 806
777 774 773 775 767 763 763 761 764 765 772 776 771 783 793 801 803 805 807 810 813 815 818 820 821 821 822 822 823 823 823 822 822 821 821 820 819 817 816 815 813 812 811 810 809 807 806 805 804
778 770 768 765 768 772 758 763 759 764 771 773 774 782 793 798 804 807 810 812 815 818 820 822 823 824 824 823 823 823 823 822 822 821 820 819 818 817 816 814 812 810 809 808 806 805 803 802 801
778 773 766 756 761 764 759 766 768 771 774 776 779 781 786 797 804 809 812 814 817 819 821 822 823 823 825 825 823 823 823 822 822 821 820 819 819 818 816 814 811 809 807 806 804 802 800 799 797
775 767 761 743 746 755 762 762 770 774 777 781 784 790 795 799 805 809 814 815 817 818 820 822 822 823 824 824 824 824 824 823 824 823 821 820 818 817 815 813 810 808 806 804 802 800 798 796 796
768 765 745 745 747 744 761 763 764 769 781 771 780 787 794 801 806 809 812 814 815 818 820 822 822 823 824 825 825 825 824 823 823 822 821 820 818 817 816 813 812 809 807 805 802 800 798 796 794
768 766 755 760 764 754 763 760 770 766 776 772 776 783 792 799 804 806 810 813 816 817 819 821 822 823 823 824 825 824 824 823 823 822 821 820 818 817 816 814 811 809 806 804 802 799 797 795 792
766 769 768 767 771 762 760 767 766 770 777 778 781 785 790 796 800 802 806 812 815 817 819 820 821 822 822 824 824 825 824 823 823 822 820 819 818 817 815 814 811 809 806 804 801 799 796 793 790
756 767 771 773 771 768 768 769 768 777 777 780 783 786 790 794 798 801 806 811 814 817 819 820 821 821 822 823 824 824 824 823 821 821 820 819 817 816 815 813 811 809 806 804 801 799 795 792 789
763 774 773 773 771 774 765 781 776 775 776 781 784 788 791 794 798 801 806 809 813 816 818 819 820 820 822 822 823 824 823 822 821 821 820 818 817 817 815 813 811 808 806 804 801 798 795 791 789
765 766 775 777 774 776 776 782 778 775 776 780 784 789 791 794 798 802 805 808 811 814 816 818 818 819 820 821 822 822 822 821 821 821 820 818 818 816 814 812 810 807 805 803 801 798 795 791 788
763 771 767 782 775 772 775 770 778 776 776 778 784 788 791 793 797 800 804 807 810 812 814 816 817 819 819 820 821 821 820 820 821 820 820 818 817 815 813 812 810 807 805 803 801 798 795 792 788
769 761 765 774 778 773 772 773 779 779 778 775 779 784 787 791 794 798 802 805 807 810 812 814 816 817 818 819 819 819 819 819 820 820 819 818 816 814 813 811 809 807 805 803 801 799 796 793 789
754 754 763 773 781 772 772 775 779 781 783 777 776 781 785 789 793 798 801 803 805 807 810 812 814 815 816 817 818 818 818 818 818 817 816 815 814 813 812 810 809 806 804 802 801 799 796 793 791
762 759 770 784 783 779 779 777 775 781 780 778 778 778 782 787 794 797 799 800 802 804 807 809 811 813 814 815 816 816 817 816 816 815 814 813 812 811 810 808 807 805 803 802 800 798 797 794 792
765 758 772 772 783 781 778 778 784 784 783 785 786 785 788 791 793 797 799 800 801 802 804 806 809 810 812 814 814 814 814 813 813 813 812 812 810 809 807 806 804 803 802 801 799 798 797 795 793
773 784 777 777 776 781 782 788 775 778 783 785 784 785 788 793 795 798 799 800 801 802 803 806 808 809 811 811 812 813 813 812 812 812 811 810 808 807 805 804 802 801 800 799 797 796 796 795 793
794 789 781 773 775 784 782 790 778 782 783 783 781 784 790 793 795 797 800 801 802 802 803 805 806 808 809 810 811 812 812 812 811 810 809 807 806 804 803 802 800 799 798 796 795 794 794 793 793
795 787 779 773 773 797 799 798 780 785 774 776 780 785 789 792 795 797 799 801 802 803 804 805 806 807 808 809 809 810 810 809 809 807 806 804 802 801 800 798 797 797 795 793 792 791 791 790 790
786 784 794 803 808 789 807 802 778 779 779 774 780 785 789 792 794 795 797 800 802 803 804 805 805 806 806 807 807 807 807 807 806 804 803 802 800 798 797 796 795 794 792 791 789 788 788 787 787
799 799 796 796 794 790 809 797 781 780 783 787 787 787 789 792 794 796 798 799 801 802 803 804 804 805 806 806 806 807 806 805 804 803 801 800 798 796 794 792 791 790 789 788 786 785 784 784 783
801 799 807 811 812 796 786 782 776 786 788 788 787 788 790 790 793 794 798 800 801 802 803 803 804 805 805 806 806 806 806 804 803 801 799 797 796 793 791 789 787 786 785 784 783 781 781 780 779
810 810 802 797 803 799 781 785 795 806 785 785 786 787 787 790 793 796 798 800 801 803 804 804 805 806 807 807 806 805 804 803 801 799 796 794 792 790 788 785 783 782 781 780 779 777 776 776 775
806 804 804 798 798 792 787 781 775 785 779 781 782 784 787 791 793 795 798 801 803 804 805 805 806 806 806 805 803 802 801 799 797 795 793 791 789 786 784 782 780 778 777 775 774 772 771 771 770
816 806 801 799 801 801 805 797 777 779 780 779 780 783 785 789 792 795 797 799 801 803 804 804 805 805 803 802 800 800 798 796 794 792 789 788 784 783 781 778 776 775 773 771 770 768 766 765 764
Wind_Speed
10 8 6 2 5 6 13 10 2 7 7 3 5 3 6 12 8 3 13 11 16 17 15 13 12 11 9 8 7 7 7 6 6 5 5 5 6 6 6 7 7 7 5 4 4 5 5 6 6
7 8 7 5 8 12 12 10 8 6 8 6 5 3 1 9 10 12 11 15 16 16 13 13 11 10 9 8 6 6 5 5 4 4 5 5 6 6 7 6 7 7 6 2 5 6 8 8 8
9 11 7 6 11 15 13 15 8 7 7 7 5 3 3 5 12 7 14 16 15 14 14 14 11 9 8 7 5 5 4 3 3 2 3 5 5 6 5 6 7 7 7 7 7 9 10 11 11
10 3 6 13 17 20 16 9 11 10 6 4 1 7 5 6 8 9 17 16 16 14 12 12 10 9 7 6 5 3 4 2 2 3 4 5 6 7 7 7 8 8 8 9 9 11 12 12 12
14 4 9 14 21 18 7 3 11 11 10 10 6 6 5 6 5 15 17 15 15 15 13 11 10 9 7 6 4 3 1 1 2 4 5 6 7 7 8 8 8 8 9 9 10 11 11 12 13
9 11 12 18 21 18 12 6 11 9 7 8 6 9 7 9 8 13 15 14 13 13 14 12 11 9 7 5 3 1 1 2 3 4 6 7 8 8 9 9 9 10 10 11 11 12 12 12 12
15 16 20 23 18 17 13 8 11 9 8 7 3 9 6 12 9 11 12 13 13 13 12 10 8 7 5 3 2 1 2 3 5 6 7 8 9 10 11 11 12 12 13 13 14 15 15 16 15
10 14 24 21 17 18 16 11 3 9 8 6 1 5 6 14 12 12 14 14 11 10 8 8 7 6 4 2 1 3 4 5 7 8 9 10 11 13 12 12 12 14 15 15 16 17 18 19 19
4 11 18 25 21 22 14 13 4 4 6 4 4 5 11 22 18 14 12 12 11 9 7 6 5 4 3 2 3 6 7 8 9 10 12 10 8 10 11 13 16 16 16 17 17 18 20 20 21
10 10 23 20 16 19 16 13 10 7 8 6 8 6 18 19 16 15 12 13 11 10 7 5 4 3 2 2 2 3 4 4 6 8 9 9 10 9 13 13 16 15 17 16 15 17 18 14 13
10 13 13 13 15 16 15 13 11 9 10 9 12 12 16 17 14 14 15 13 11 9 7 5 3 2 2 1 2 3 4 5 6 8 9 9 9 9 10 11 11 12 13 12 13 13 12 13 14
15 2 7 7 2 9 15 12 9 11 5 7 4 14 16 16 16 16 14 12 11 10 7 5 3 2 1 2 2 4 4 5 6 7 8 9 9 9 10 10 12 11 11 13 13 13 14 14 14
14 7 3 7 8 10 11 11 10 9 3 4 6 12 15 16 19 18 15 12 11 9 8 6 5 3 1 1 3 3 4 4 5 6 7 8 8 9 10 11 11 11 12 12 13 14 14 14 14
8 8 11 10 10 8 12 10 11 6 6 8 9 11 13 14 17 16 13 12 10 9 9 7 6 4 2 1 2 3 3 3 4 4 6 7 7 9 10 11 11 11 11 12 13 14 15 14 14
14 13 11 9 10 5 11 9 7 9 8 9 9 10 12 13 15 14 12 10 10 8 8 9 7 6 4 2 0 1 2 2 2 3 4 6 7 8 9 10 10 11 12 13 13 14 13 13 13
12 14 12 7 7 4 4 13 10 8 10 10 10 10 11 11 12 10 9 9 8 8 9 9 8 8 5 3 1 2 1 1 1 2 4 5 5 7 8 9 9 11 11 11 12 13 14 13 13
12 15 14 8 1 7 8 15 10 7 9 11 11 11 10 10 10 9 9 10 10 10 10 10 9 7 6 5 4 3 2 2 2 2 3 5 5 7 8 8 9 11 9 10 11 12 13 14 14
14 17 15 12 4 9 8 9 10 7 8 10 11 10 10 9 9 9 9 9 10 11 11 10 10 9 8 6 4 3 3 3 3 3 4 4 5 7 7 8 9 9 9 10 11 12 12 13 12
6 15 17 11 2 9 11 8 10 8 6 9 9 10 10 8 7 5 6 8 10 11 11 11 11 11 10 7 5 4 4 4 5 5 6 5 5 6 7 8 8 8 9 10 10 10 11 11 13
4 17 14 5 2 4 8 8 8 7 7 6 9 9 8 7 5 3 5 9 10 10 11 12 13 12 10 7 4 3 4 5 7 7 7 7 7 8 8 8 8 8 9 9 9 9 9 10 10
2 10 12 9 7 3 6 8 9 6 5 4 5 3 1 4 3 1 1 4 7 9 11 12 12 11 9 7 4 5 5 7 7 8 7 9 10 11 10 9 9 9 8 8 8 7 7 9 9
7 7 2 12 10 4 2 5 12 10 8 7 6 7 6 5 4 2 2 2 4 6 8 9 10 10 9 8 6 7 7 8 7 8 10 12 12 12 12 12 10 9 9 9 7 6 6 7 8
4 3 2 4 5 3 3 2 6 6 9 9 7 7 5 4 2 3 3 3 2 5 7 9 10 9 8 7 7 6 8 8 9 10 12 12 13 13 13 12 11 11 11 9 8 7 7 6 8
2 2 3 2 2 0 2 2 5 5 7 10 7 7 6 5 3 3 3 4 4 5 6 7 7 7 7 6 6 7 9 10 12 12 14 14 12 12 12 12 12 12 12 11 9 8 8 8 8
3 2 2 1 2 0 1 2 2 4 3 7 8 5 6 5 5 4 5 5 4 5 5 5 6 5 5 6 7 8 10 10 12 12 12 13 12 11 11 11 12 13 13 13 11 10 10 9 10
4 4 3 1 3 3 2 3 2 2 4 2 3 3 4 5 4 3 4 4 5 4 4 4 4 4 4 5 5 6 7 7 9 10 10 13 12 12 11 11 12 13 14 14 14 13 13 11 11
4 1 2 2 1 2 2 2 6 4 6 5 5 6 7 7 6 6 5 4 3 2 2 2 2 2 1 1 2 4 6 8 10 12 12 12 13 13 12 11 12 13 14 15 15 16 15 14 14
1 2 2 1 1 1 2 3 3 5 10 8 8 8 8 7 7 5 5 4 2 2 2 2 2 1 1 4 5 7 9 10 12 13 14 14 15 15 15 14 13 13 14 14 15 17 17 17 17
1 2 1 2 3 2 2 1 1 3 4 9 8 8 7 7 7 5 4 2 2 2 2 2 2 2 3 5 6 8 9 11 12 13 14 14 15 15 15 16 16 15 15 15 16 18 19 19 19
4 4 4 2 2 1 2 5 3 3 1 3 5 6 6 6 5 5 6 6 5 4 3 2 1 2 4 6 8 10 12 13 14 14 14 15 16 16 16 15 15 16 17 16 17 19 19 20 20
Wind_Direction
242 279 269 259 234 228 225 218 56 168 171 60 111 344 46 27 5 29 144 127 137 140 144 141 143 140 134 125 113 101 91 84 75 62 45 27 15 9 6 4 1 2 359 294 313 321 334 334 327
237 238 235 224 241 210 216 198 199 160 84 140 112 123 173 78 65 114 130 138 144 140 144 144 146 142 136 127 117 101 88 75 59 37 18 0 352 345 341 341 343 347 353 351 301 301 304 310 313
207 245 230 209 223 229 218 185 184 114 136 157 127 1 23 71 122 112 133 140 139 139 131 151 146 142 138 127 114 101 82 62 40 18 359 350 349 352 352 338 334 330 327 321 305 298 294 295 296
166 267 253 227 209 225 222 165 135 146 137 174 154 125 94 7 130 127 138 139 134 130 128 139 143 142 133 121 111 104 84 53 6 358 342 334 332 332 330 329 328 325 321 314 307 301 297 292 291
182 195 240 215 218 202 198 86 172 172 146 160 187 122 95 130 108 141 140 138 137 135 126 129 138 138 133 135 138 123 121 349 340 341 339 338 339 336 330 327 325 322 321 317 314 306 301 295 289
186 203 189 219 214 204 179 193 189 167 144 121 176 133 114 119 148 144 140 136 134 123 129 125 138 143 141 137 132 117 26 358 346 339 337 335 333 331 325 322 316 310 306 305 305 305 305 304 300
220 199 204 208 206 193 193 186 185 165 164 162 82 162 110 144 134 143 131 124 115 119 121 125 126 136 139 142 126 50 12 355 343 337 334 331 329 325 321 319 313 310 306 304 303 301 299 297 296
213 227 216 207 203 195 192 176 161 177 140 80 256 166 168 151 146 124 137 131 131 129 127 129 130 133 121 89 65 8 355 348 340 333 330 330 341 335 328 332 306 309 306 303 301 298 297 295 294
215 222 217 196 201 196 152 181 187 56 120 165 131 35 82 131 142 125 125 136 138 133 133 132 131 127 118 105 14 13 353 1 4 354 339 353 332 325 323 307 320 319 315 312 310 308 303 300 298
216 214 203 218 186 198 172 187 152 167 157 175 156 121 124 133 140 137 156 155 159 151 146 148 137 124 104 66 43 6 357 1 350 350 346 341 335 329 339 336 336 343 336 340 333 334 333 329 310
200 209 215 179 210 193 171 193 162 201 192 196 194 156 146 144 150 162 174 172 169 161 158 163 150 130 94 45 23 358 357 2 348 351 353 343 341 336 333 332 329 328 327 326 322 320 316 313 310
190 290 177 149 258 171 170 153 184 202 61 44 56 152 157 161 168 183 176 175 168 168 168 170 161 134 101 35 14 8 352 4 354 351 354 349 348 339 335 332 330 329 327 324 323 319 315 313 311
218 151 159 154 194 185 158 174 159 168 92 132 161 155 168 170 178 180 181 179 179 179 179 179 178 169 136 83 29 351 356 358 355 354 355 356 349 343 337 333 333 331 329 328 325 320 316 314 312
167 157 146 168 155 154 170 143 160 134 136 125 147 166 171 179 180 172 176 185 188 190 191 188 187 195 180 133 42 1 351 356 1 359 353 0 354 344 338 336 336 336 332 327 326 321 318 316 313
146 140 137 149 165 151 162 155 183 131 148 137 151 161 168 178 179 182 186 194 202 204 200 198 197 198 183 154 39 356 330 3 352 348 351 360 356 344 336 334 336 336 332 328 326 324 321 319 317
172 154 154 145 183 172 228 168 134 152 156 154 156 160 167 175 187 195 194 205 211 216 208 203 202 207 193 190 210 253 257 270 292 333 352 348 341 338 338 335 335 334 331 328 326 327 325 324 321
178 174 167 152 229 160 220 152 155 164 182 165 171 173 177 178 194 206 214 222 223 223 216 206 202 195 188 198 219 243 242 231 274 326 317 314 330 336 339 333 332 334 333 332 332 330 329 324 324
178 174 156 155 146 193 196 106 153 163 193 183 184 184 186 193 201 205 212 223 228 226 221 213 203 197 196 203 219 233 241 236 250 267 281 309 321 327 328 324 327 333 331 331 335 332 329 322 336
252 160 166 111 121 198 190 149 167 168 193 205 197 196 198 206 195 189 224 228 229 227 222 215 203 200 198 206 223 238 242 237 248 255 270 291 299 308 310 311 318 321 323 324 329 333 331 329 338
258 163 134 112 115 238 177 188 163 180 199 209 217 211 212 212 210 212 250 237 223 221 216 210 206 201 202 209 221 224 229 248 254 265 274 283 287 289 296 298 303 309 312 315 322 332 330 324 338
18 166 167 145 146 77 164 197 183 180 199 176 206 241 267 242 219 155 256 212 208 210 208 205 202 198 200 203 216 245 251 267 265 268 274 280 277 282 284 286 287 293 297 302 313 324 328 313 320
129 17 153 137 176 148 246 188 192 173 181 199 185 182 161 162 151 113 73 130 191 190 190 194 190 194 201 208 229 240 255 272 279 283 283 283 282 280 277 278 280 280 282 290 298 312 306 302 307
76 347 82 157 114 133 137 271 123 183 197 185 173 149 158 146 131 116 90 83 114 163 174 180 187 196 208 223 243 256 266 281 290 286 288 289 289 280 275 271 272 272 273 277 286 296 291 284 285
32 256 166 139 144 258 53 330 159 179 210 172 160 164 158 153 140 131 133 157 147 153 165 179 192 209 224 234 241 253 267 278 286 290 293 294 291 284 276 269 267 267 267 271 274 277 275 269 269
360 281 130 103 17 63 81 225 322 155 158 179 173 165 167 163 174 174 177 173 163 173 181 194 205 217 223 234 247 255 264 274 282 289 292 293 292 288 282 276 269 268 267 265 265 265 265 262 258
6 339 336 196 166 127 178 226 129 147 134 189 193 187 167 184 183 187 180 178 175 182 189 202 219 234 241 251 266 274 278 280 286 290 291 291 289 287 284 280 274 271 267 262 262 261 261 258 253
19 287 351 95 85 254 108 251 204 171 202 209 195 187 196 198 191 181 172 177 172 174 167 189 199 199 198 244 278 286 293 296 296 296 295 294 292 292 290 284 279 274 268 263 260 260 262 259 256
354 357 246 211 44 278 177 263 258 244 218 201 201 207 200 194 188 182 186 178 157 139 130 116 104 91 341 335 325 316 311 305 303 301 300 297 295 293 290 285 279 274 269 265 261 259 261 260 257
136 254 290 316 339 308 312 98 70 189 225 202 210 211 199 195 200 201 199 187 171 138 121 97 56 2 337 326 317 311 302 301 300 301 301 300 299 298 294 291 286 280 275 270 263 260 260 258 257
297 305 302 296 116 15 344 270 47 47 37 226 218 204 202 206 203 206 206 196 189 184 175 180 205 295 312 315 318 313 311 311 312 309 306 305 304 302 298 293 288 286 281 276 270 267 261 258 257